Theta_e
348 352 362 363 363 363 364 363 361 361 361 361 362 362 361 360 360 360 358 357 355 356 357 356 355 355 353 354 353 351 349 351
348 352 358 361 362 363 363 362 361 361 360 361 362 362 361 360 359 358 356 356 355 355 356 355 354 353 353 353 351 349 350 352
350 350 354 360 361 361 361 361 360 360 360 361 361 361 361 360 359 358 356 355 355 354 353 353 352 351 351 351 351 350 350 350
353 349 349 351 357 360 360 359 359 359 359 359 359 360 360 360 358 357 356 355 355 354 353 352 351 351 350 350 350 350 349 350
351 351 348 349 347 349 353 359 358 358 358 358 359 359 359 358 357 355 355 355 354 354 353 352 351 350 349 350 351 350 350 350
348 351 350 348 348 348 347 352 357 357 358 358 357 358 354 349 353 353 352 354 353 352 353 352 352 351 351 353 353 353 350 339
346 348 349 350 350 350 348 351 349 347 347 347 347 352 347 348 354 352 353 354 351 351 351 352 351 351 351 340 343 351 343 335
348 348 349 355 356 352 349 350 349 349 348 348 350 354 355 348 353 350 351 348 346 351 345 346 345 343 340 340 340 340 338 337
348 349 351 353 358 361 352 351 351 350 351 351 352 357 357 349 352 349 343 345 348 347 347 347 345 347 346 347 345 342 340 341
349 350 351 354 359 363 363 354 353 355 352 354 355 358 354 351 353 349 350 345 345 344 343 344 343 345 348 351 349 347 346 346
353 353 354 355 364 360 361 365 356 357 357 355 354 356 358 355 360 349 349 346 344 343 343 341 342 346 351 352 350 351 352 354
356 357 357 358 362 366 363 362 362 357 356 354 353 360 359 360 358 361 348 346 343 347 346 346 345 348 349 350 352 351 352 353
360 360 359 356 358 362 364 362 359 357 355 354 355 356 359 359 359 360 351 347 346 347 343 343 344 347 347 347 349 350 351 353
360 358 359 360 357 359 364 361 362 364 357 355 361 359 358 357 356 358 351 347 357 344 342 342 345 350 350 352 350 350 353 352
358 361 360 360 360 361 359 359 356 355 356 355 354 354 356 356 356 357 354 355 353 345 342 341 352 348 351 355 350 348 351 350
353 357 359 360 363 359 355 352 351 349 351 351 351 355 353 354 353 358 351 353 352 348 351 356 348 350 346 353 349 347 347 351
342 350 357 359 363 360 358 358 353 351 350 350 350 351 351 352 355 355 356 352 354 349 357 357 358 356 349 350 343 340 330 336
339 343 347 354 359 360 360 358 357 355 354 350 352 351 354 354 356 357 357 359 365 362 365 363 359 356 347 347 353 340 327 325
339 342 346 351 355 357 360 360 364 353 349 354 355 354 356 358 359 359 361 360 363 366 366 359 357 356 355 343 344 346 349 342
Wind_Speed
21 20 18 18 17 18 18 18 18 17 17 16 15 14 13 12 10 9 10 9 8 7 7 7 6 5 4 3 0 2 4 9
20 20 19 17 18 18 18 18 17 17 16 16 16 14 12 11 10 9 8 8 8 7 6 5 4 4 2 2 2 4 7 11
19 20 18 16 16 16 17 18 17 17 16 15 15 14 13 11 10 9 8 8 7 6 5 5 3 2 3 4 4 5 8 11
19 19 16 16 15 13 14 14 15 15 15 15 14 13 11 11 9 8 7 6 6 5 4 3 3 4 4 5 7 8 9 11
19 19 18 16 16 14 13 13 14 15 14 13 13 12 12 10 9 8 6 7 7 6 6 5 5 5 6 7 8 9 10 13
17 18 19 18 17 16 14 13 12 13 14 14 13 12 11 10 10 12 7 12 10 8 7 7 6 6 8 11 14 14 11 8
19 19 17 17 16 16 12 14 12 12 11 11 12 13 10 10 10 8 12 10 8 8 8 9 9 9 10 10 10 14 8 11
18 16 18 13 12 14 13 11 8 8 8 9 12 12 11 9 8 7 7 7 8 11 8 10 10 8 13 9 7 6 7 7
18 16 17 17 13 11 10 10 10 9 9 8 10 12 8 6 7 7 7 8 8 8 7 7 5 9 5 7 9 9 9 8
16 16 16 16 13 10 9 10 9 8 9 9 9 11 10 9 6 7 6 7 5 8 8 5 8 5 7 9 8 9 8 8
16 16 15 15 12 12 10 8 8 7 8 8 9 10 12 8 6 7 7 7 8 8 6 8 7 6 8 8 7 7 9 8
13 14 13 14 14 11 12 9 7 7 9 8 8 9 11 9 4 5 8 8 8 7 8 6 6 6 8 8 10 9 10 10
9 12 12 12 15 13 11 9 8 8 8 7 7 7 9 9 8 8 9 8 8 7 7 8 8 8 8 8 8 8 8 8
8 12 11 13 12 14 11 8 8 7 6 6 1 4 8 11 10 8 8 9 6 7 8 7 7 7 6 8 9 7 7 8
12 10 11 11 12 11 9 9 8 7 5 6 6 7 9 9 11 7 6 8 6 9 9 7 7 7 8 7 7 9 6 8
12 11 10 9 9 8 9 9 9 8 8 8 8 5 9 11 10 9 8 9 7 10 9 6 7 9 8 9 6 9 10 8
9 10 11 10 9 7 6 6 6 7 9 9 10 12 12 13 11 10 9 10 10 11 10 8 8 6 8 8 7 9 9 8
10 9 9 10 11 11 10 8 5 6 5 6 8 8 10 13 11 11 11 10 7 9 5 7 7 9 9 9 9 7 6 10
11 9 9 8 9 9 10 9 8 7 8 6 5 3 3 10 9 10 8 8 8 7 6 7 7 10 9 10 5 6 10 11
Wind_Direction
148 140 136 133 135 140 139 138 139 139 140 140 139 137 140 137 131 134 135 140 149 158 160 156 157 163 169 155 187 313 313 302
148 137 148 140 142 145 142 143 142 142 143 143 142 141 141 140 140 141 144 149 158 170 174 173 176 184 211 230 264 299 306 308
141 140 142 140 141 147 148 147 147 148 149 147 146 145 145 146 151 153 154 154 162 174 183 189 207 244 274 283 284 289 300 306
137 147 154 155 145 141 145 147 149 151 152 150 147 146 147 149 155 156 158 162 170 176 184 197 221 253 265 275 280 281 287 291
151 145 156 158 162 164 159 153 156 156 155 152 149 148 148 151 161 163 163 176 182 184 190 199 217 240 257 262 263 267 272 279
161 157 163 166 164 169 163 163 164 166 159 155 156 157 157 187 180 162 147 152 180 193 203 209 220 239 255 257 244 235 241 262
165 166 165 170 166 166 162 156 178 170 179 185 182 175 195 202 186 198 157 161 181 201 217 219 219 230 238 252 211 221 237 245
171 172 165 166 166 174 166 165 179 174 179 190 192 179 219 200 180 207 167 185 205 203 218 198 208 229 231 252 306 246 277 293
172 175 164 172 176 192 171 176 185 184 185 191 192 186 210 218 198 219 220 200 197 181 214 217 228 226 289 270 269 283 287 286
174 179 176 171 180 196 200 182 199 199 189 197 184 188 212 215 204 212 229 240 208 213 215 226 232 256 247 233 248 249 264 285
171 179 183 177 179 198 209 192 206 199 183 210 198 195 216 216 185 221 222 229 237 232 228 225 222 241 227 252 255 246 252 264
171 182 191 185 177 204 204 211 219 205 234 204 214 201 197 212 210 255 226 222 233 236 239 247 259 240 254 251 248 250 245 251
172 181 192 196 182 194 202 212 224 236 216 218 221 208 208 205 217 194 261 237 237 230 222 232 227 238 241 248 263 268 282 262
183 170 198 214 211 190 207 214 218 229 225 234 277 240 221 227 218 206 218 242 231 243 236 228 246 249 260 264 287 268 273 288
184 177 184 197 213 196 196 211 218 215 216 251 220 232 229 236 235 218 243 263 216 235 235 221 239 250 257 282 288 291 297 292
187 185 194 190 192 211 205 203 206 214 211 216 240 218 228 238 227 221 226 243 227 252 239 209 229 234 256 256 255 264 254 247
179 195 191 195 185 191 218 236 240 207 220 217 224 215 227 228 226 223 220 247 222 231 224 223 234 251 255 259 243 281 276 257
188 189 204 203 203 202 227 201 210 271 269 222 238 234 224 233 224 227 220 228 269 254 224 226 234 238 244 257 213 233 271 271
186 182 179 193 202 212 220 243 215 248 243 231 243 11 1 248 210 232 241 234 240 251 267 241 232 248 236 254 255 226 261 288